sat.trackr.live / text

‹ back to catalog

STARLINK-34843

NORAD 65201 · 2025-176D

PAYLOAD ACTIVE UNKNOWN

§ Identity

Operator
Country
US
Launch date
2025-08-14
Launch site
AFETR
Launch vehicle
Mass (kg)
RCS (m²)

Purposes: comms

External: N2YO · Heavens-Above · Gunter

§ Orbital elements

Epoch: 2026-05-25T01:26:43.308672Z

Period
93.85 min
Inclination
53.1577°
Eccentricity
0.0000942
Mean motion
15.34416795 rev/d
Perigee alt
462.0 km
Apogee alt
463.3 km
Semi-major
6,840.8 km
B*
6.0292e-4
RAAN
157.2488°
Arg perigee
67.4303°
Mean anomaly
292.6799°
Rev number
4,482

§ Raw data

STARLINK-348431 65201U 25176D   26145.06022348  .00020060  00000+0  60292-3 0  99972 65201  53.1577 157.2488 0000942  67.4303 292.6799 15.34416795 44824

JSON: /api/v1/satellites/65201 · /tle

For live sub-satellite position, see the globe view (requires WebGL).

§ Visibility from observer

Set your observer location to see the next 7 days of passes ≥ 10°. The values pass through the URL so the page stays shareable.

No JS? Fill the form by hand. The geolocation button needs JavaScript.